| time (UTC) | temp F | wind direction | speed MPH | gust MPH | rain 1hr in | rain 24hr in | rain mn in | humidity % | barometer mb |
| 20260502170334 | 65 | 84 | 1.0 | 8.0 | 0.00 | 0.43 | 0.09 | 86 | 1020.2 |
| 20260502164341 | 65 | 81 | 2.0 | 8.0 | 0.00 | 0.43 | 0.09 | 86 | 1019.8 |
| 20260502163849 | 65 | 117 | 4.0 | 9.0 | 0.00 | 0.43 | 0.09 | 86 | 1019.8 |
| 20260502162830 | 65 | 114 | 3.0 | 9.0 | 0.00 | 0.43 | 0.09 | 87 | 1020.2 |
| 20260502162342 | 65 | 119 | 5.0 | 9.0 | 0.00 | 0.43 | 0.09 | 86 | 1020.3 |
| 20260502161830 | 65 | 112 | 5.0 | 9.0 | 0.00 | 0.43 | 0.09 | 86 | 1020.3 |
| 20260502161342 | 65 | 89 | 5.0 | 9.0 | 0.00 | 0.43 | 0.09 | 86 | 1020.5 |
| 20260502160829 | 65 | 123 | 4.0 | 10.0 | 0.00 | 0.43 | 0.09 | 86 | 1020.6 |
| 20260502160346 | 65 | 128 | 7.0 | 10.0 | 0.00 | 0.43 | 0.09 | 86 | 1020.6 |
| 20260502152341 | 65 | 157 | 5.0 | 11.0 | 0.00 | 0.43 | 0.09 | 86 | 1020.7 |
| 20260502151845 | 65 | 140 | 6.0 | 11.0 | 0.00 | 0.43 | 0.09 | 85 | 1020.6 |
| 20260502151336 | 65 | 121 | 5.0 | 9.0 | 0.00 | 0.43 | 0.09 | 85 | 1020.8 |
| 20260502150843 | 65 | 163 | 4.0 | 11.0 | 0.00 | 0.43 | 0.09 | 85 | 1020.9 |
| 20260502123329 | 66 | 157 | 5.0 | 11.0 | 0.00 | 0.43 | 0.09 | 84 | 1022.3 |
| 20260502122837 | 66 | 168 | 6.0 | 11.0 | 0.00 | 0.43 | 0.09 | 83 | 1022.3 |
| 20260502122330 | 67 | 165 | 5.0 | 12.0 | 0.00 | 0.43 | 0.09 | 83 | 1022.3 |
| 20260502121332 | 67 | 150 | 6.0 | 12.0 | 0.00 | 0.43 | 0.09 | 81 | 1022.4 |
| 20260502120333 | 67 | 132 | 5.0 | 10.0 | 0.00 | 0.43 | 0.09 | 81 | 1022.6 |
| 20260502115833 | 67 | 157 | 6.0 | 9.0 | 0.00 | 0.43 | 0.09 | 81 | 1022.5 |
| 20260502115348 | 67 | 168 | 5.0 | 10.0 | 0.00 | 0.43 | 0.09 | 81 | 1022.6 |
| 20260502114832 | 67 | 142 | 5.0 | 10.0 | 0.00 | 0.43 | 0.09 | 81 | 1022.6 |
| 20260502114343 | 67 | 121 | 6.0 | 12.0 | 0.00 | 0.43 | 0.09 | 81 | 1022.6 |
| 20260502113831 | 67 | 125 | 8.0 | 12.0 | 0.00 | 0.43 | 0.09 | 80 | 1022.5 |
| 20260502113343 | 67 | 96 | 3.0 | 10.0 | 0.00 | 0.43 | 0.09 | 81 | 1022.5 |
| 20260502112831 | 67 | 135 | 5.0 | 10.0 | 0.00 | 0.43 | 0.09 | 81 | 1022.6 |
| 20260502112345 | 67 | 100 | 5.0 | 10.0 | 0.00 | 0.43 | 0.09 | 81 | 1022.8 |
| 20260502111346 | 67 | 119 | 5.0 | 11.0 | 0.00 | 0.43 | 0.09 | 81 | 1023.0 |
| 20260502110830 | 67 | 113 | 7.0 | 11.0 | 0.00 | 0.43 | 0.09 | 81 | 1023.1 |
| 20260502110342 | 67 | 135 | 4.0 | 9.0 | 0.00 | 0.43 | 0.09 | 81 | 1023.1 |
| 20260502105835 | 67 | 125 | 4.0 | 10.0 | 0.00 | 0.43 | 0.09 | 81 | 1023.0 |
| 20260502104839 | 67 | 155 | 5.0 | 10.0 | 0.00 | 0.43 | 0.09 | 82 | 1023.3 |
| 20260502104332 | 67 | 124 | 5.0 | 9.0 | 0.00 | 0.43 | 0.09 | 83 | 1023.4 |
| 20260502103839 | 66 | 129 | 4.0 | 9.0 | 0.00 | 0.43 | 0.09 | 83 | 1023.3 |
| 20260502103337 | 66 | 157 | 4.0 | 11.0 | 0.00 | 0.43 | 0.09 | 83 | 1023.4 |
| 20260502101841 | 66 | 151 | 5.0 | 11.0 | 0.00 | 0.43 | 0.09 | 83 | 1023.6 |
| 20260502101338 | 66 | 152 | 7.0 | 11.0 | 0.00 | 0.43 | 0.09 | 82 | 1023.6 |
| 20260502100842 | 67 | 160 | 5.0 | 10.0 | 0.00 | 0.43 | 0.09 | 82 | 1023.6 |
| 20260502100334 | 67 | 143 | 5.0 | 7.0 | 0.00 | 0.43 | 0.09 | 80 | 1023.6 |
| 20260502091343 | 66 | 149 | 4.0 | 9.0 | 0.00 | 0.43 | 0.09 | 84 | 1023.4 |
| 20260502090831 | 66 | 85 | 5.0 | 9.0 | 0.00 | 0.43 | 0.09 | 85 | 1023.3 |
| 20260502090342 | 66 | 87 | 3.0 | 10.0 | 0.00 | 0.43 | 0.09 | 86 | 1023.3 |
| 20260502071340 | 64 | 138 | 4.0 | 8.0 | 0.00 | 0.43 | 0.09 | 94 | 1023.5 |
| 20260502070846 | 64 | 141 | 3.0 | 5.0 | 0.00 | 0.43 | 0.09 | 94 | 1023.4 |
| 20260502070338 | 64 | 122 | 1.0 | 5.0 | 0.00 | 0.43 | 0.09 | 94 | 1023.3 |
| 20260502065835 | 64 | 121 | 2.0 | 5.0 | 0.00 | 0.43 | 0.09 | 94 | 1023.3 |
| 20260502065347 | 64 | 128 | 2.0 | 5.0 | 0.00 | 0.43 | 0.09 | 94 | 1023.4 |
| 20260502064832 | 64 | 140 | 0.0 | 5.0 | 0.00 | 0.43 | 0.09 | 94 | 1023.4 |
| 20260502064347 | 63 | 140 | 1.0 | 7.0 | 0.00 | 0.43 | 0.09 | 94 | 1023.4 |
| 20260502063834 | 63 | 127 | 4.0 | 7.0 | 0.00 | 0.43 | 0.09 | 94 | 1023.3 |
| 20260502063345 | 63 | 152 | 2.0 | 6.0 | 0.00 | 0.43 | 0.09 | 94 | 1023.3 |
| 20260502061830 | 64 | 128 | 0.0 | 3.0 | 0.00 | 0.43 | 0.09 | 94 | 1023.3 |
| 20260502061344 | 64 | 129 | 1.0 | 4.0 | 0.00 | 0.43 | 0.09 | 94 | 1023.2 |
| 20260502060344 | 64 | 124 | 3.0 | 5.0 | 0.00 | 0.43 | 0.09 | 94 | 1023.2 |
| 20260502055842 | 64 | 134 | 1.0 | 5.0 | 0.00 | 0.43 | 0.09 | 94 | 1023.2 |
| 20260502055333 | 64 | 128 | 3.0 | 5.0 | 0.00 | 0.43 | 0.09 | 94 | 1023.1 |
| 20260502054841 | 64 | 150 | 1.0 | 5.0 | 0.00 | 0.43 | 0.09 | 94 | 1023.1 |
| 20260502054337 | 64 | 128 | 2.0 | 6.0 | 0.00 | 0.43 | 0.09 | 94 | 1023.1 |
| 20260502053336 | 64 | 128 | 3.0 | 5.0 | 0.00 | 0.43 | 0.09 | 94 | 1023.0 |
| 20260502052842 | 64 | 117 | 3.0 | 5.0 | 0.00 | 0.43 | 0.09 | 94 | 1022.9 |
| 20260502051843 | 63 | 92 | 1.0 | 5.0 | 0.00 | 0.43 | 0.09 | 94 | 1022.9 |
| 20260502050844 | 63 | 94 | 2.0 | 6.0 | 0.00 | 0.43 | 0.09 | 94 | 1022.8 |
| 20260502050335 | 63 | 313 | 0.0 | 2.0 | 0.04 | 0.43 | 0.09 | 94 | 1022.8 |
| 20260502045837 | 63 | 313 | 0.0 | 2.0 | 0.08 | 0.43 | 0.09 | 94 | 1022.8 |
| 20260502045329 | 63 | 308 | 0.0 | 2.0 | 0.20 | 0.43 | 0.09 | 94 | 1022.7 |
| 20260502044836 | 63 | 307 | 0.0 | 2.0 | 0.24 | 0.43 | 0.09 | 94 | 1022.7 |
| 20260502044331 | 63 | 301 | 0.0 | 1.0 | 0.24 | 0.43 | 0.09 | 94 | 1022.7 |
| 20260502042839 | 63 | 301 | 0.0 | 0.0 | 0.28 | 0.43 | 0.09 | 94 | 1022.7 |
| 20260502042331 | 63 | 301 | 0.0 | 0.0 | 0.28 | 0.43 | 0.09 | 94 | 1022.7 |
| 20260502041836 | 63 | 301 | 0.0 | 0.0 | 0.28 | 0.43 | 0.09 | 94 | 1022.7 |
| 20260502041348 | 63 | 301 | 0.0 | 1.0 | 0.28 | 0.43 | 0.09 | 94 | 1022.7 |
| 20260502040837 | 63 | 301 | 0.0 | 1.0 | 0.28 | 0.43 | 0.09 | 94 | 1022.8 |
| 20260502040348 | 63 | 301 | 0.0 | 0.0 | 0.24 | 0.39 | 0.08 | 94 | 1022.8 |
| 20260502035844 | 63 | 301 | 0.0 | 0.0 | 0.20 | 0.35 | 0.07 | 94 | 1022.8 |
| 20260502035336 | 63 | 300 | 0.0 | 1.0 | 0.08 | 0.24 | 0.05 | 94 | 1022.8 |
| 20260502034336 | 63 | 300 | 0.0 | 0.0 | 0.04 | 0.20 | 0.04 | 94 | 1022.8 |
| 20260502033844 | 63 | 301 | 0.0 | 1.0 | 0.04 | 0.20 | 0.04 | 93 | 1022.8 |
| 20260502032845 | 63 | 300 | 0.0 | 2.0 | 0.00 | 0.16 | 0.03 | 93 | 1022.9 |
| 20260502031849 | 63 | 310 | 0.0 | 1.0 | 0.08 | 0.16 | 0.03 | 93 | 1022.9 |
| 20260502031340 | 63 | 310 | 0.0 | 1.0 | 0.08 | 0.16 | 0.03 | 93 | 1022.9 |
| 20260502030829 | 63 | 310 | 1.0 | 1.0 | 0.08 | 0.16 | 0.03 | 92 | 1022.9 |
| 20260502030344 | 63 | 312 | 0.0 | 1.0 | 0.12 | 0.16 | 0.03 | 92 | 1022.9 |
| 20260502025336 | 63 | 313 | 0.0 | 1.0 | 0.12 | 0.16 | 0.03 | 92 | 1023.0 |
| 20260502024839 | 63 | 313 | 0.0 | 0.0 | 0.12 | 0.16 | 0.03 | 92 | 1022.9 |
| 20260502024331 | 63 | 313 | 0.0 | 1.0 | 0.16 | 0.16 | 0.03 | 92 | 1022.9 |
| 20260502023839 | 63 | 313 | 0.0 | 1.0 | 0.16 | 0.16 | 0.03 | 92 | 1023.0 |
| 20260502023332 | 63 | 313 | 0.0 | 1.0 | 0.16 | 0.16 | 0.03 | 91 | 1023.0 |
| 20260502022837 | 63 | 313 | 0.0 | 1.0 | 0.16 | 0.16 | 0.03 | 91 | 1023.0 |
| 20260502022350 | 63 | 313 | 0.0 | 0.0 | 0.12 | 0.12 | 0.02 | 91 | 1023.0 |
| 20260502021835 | 63 | 313 | 0.0 | 2.0 | 0.08 | 0.08 | 0.02 | 91 | 1023.0 |
| 20260502021344 | 64 | 313 | 0.0 | 2.0 | 0.08 | 0.08 | 0.02 | 91 | 1023.0 |
| 20260502020344 | 64 | 313 | 0.0 | 2.0 | 0.04 | 0.04 | 0.01 | 90 | 1023.0 |
| 20260502015840 | 64 | 313 | 1.0 | 3.0 | 0.04 | 0.04 | 0.01 | 90 | 1023.1 |
| 20260502015334 | 64 | 329 | 1.0 | 2.0 | 0.04 | 0.04 | 0.01 | 90 | 1023.2 |
| 20260502014840 | 64 | 11 | 1.0 | 3.0 | 0.04 | 0.04 | 0.01 | 90 | 1023.2 |
| 20260502014332 | 64 | 19 | 1.0 | 3.0 | 0.00 | 0.00 | 0.00 | 90 | 1023.3 |
| 20260502013838 | 64 | 26 | 0.0 | 4.0 | 0.00 | 0.00 | 0.00 | 90 | 1023.2 |
| 20260502013336 | 64 | 35 | 1.0 | 4.0 | 0.00 | 0.00 | 0.00 | 90 | 1023.2 |
| 20260502011845 | 64 | 28 | 3.0 | 7.0 | 0.00 | 0.00 | 0.00 | 90 | 1023.3 |
| 20260502011339 | 64 | 20 | 3.0 | 7.0 | 0.00 | 0.00 | 0.00 | 91 | 1023.4 |
| 20260502010845 | 64 | 19 | 1.0 | 5.0 | 0.00 | 0.00 | 0.00 | 91 | 1023.5 |
| 20260502010336 | 64 | 44 | 1.0 | 5.0 | 0.00 | 0.00 | 0.00 | 91 | 1023.6 |
| 20260502005834 | 64 | 57 | 2.0 | 5.0 | 0.00 | 0.04 | 0.00 | 91 | 1023.6 |
| 20260502005329 | 64 | 69 | 3.0 | 5.0 | 0.00 | 0.04 | 0.00 | 91 | 1023.6 |
| 20260502004840 | 64 | 53 | 2.0 | 5.0 | 0.00 | 0.04 | 0.00 | 91 | 1023.7 |
| 20260502004334 | 64 | 48 | 2.0 | 5.0 | 0.00 | 0.04 | 0.00 | 91 | 1023.7 |
| 20260502003841 | 64 | 72 | 3.0 | 7.0 | 0.00 | 0.04 | 0.00 | 91 | 1023.8 |
| 20260502003331 | 64 | 51 | 3.0 | 7.0 | 0.00 | 0.04 | 0.00 | 91 | 1023.7 |
| 20260502002836 | 64 | 38 | 2.0 | 7.0 | 0.00 | 0.04 | 0.00 | 91 | 1023.8 |
| 20260502001839 | 64 | 53 | 2.0 | 6.0 | 0.00 | 0.04 | 0.00 | 92 | 1024.0 |
| 20260502001350 | 64 | 51 | 3.0 | 6.0 | 0.00 | 0.04 | 0.00 | 92 | 1024.1 |
| 20260502000836 | 64 | 61 | 2.0 | 5.0 | 0.00 | 0.04 | 0.00 | 91 | 1024.2 |
| 20260502000349 | 64 | 61 | 2.0 | 5.0 | 0.00 | 0.04 | 0.00 | 91 | 1024.3 |
| 20260501235847 | 64 | 61 | 2.0 | 5.0 | 0.00 | 0.04 | 0.00 | 91 | 1024.4 |
| 20260501234847 | 64 | 36 | 2.0 | 5.0 | 0.00 | 0.04 | 0.00 | 91 | 1024.4 |
| 20260501234338 | 64 | 50 | 2.0 | 6.0 | 0.00 | 0.04 | 0.00 | 92 | 1024.4 |
| 20260501233844 | 64 | 60 | 3.0 | 7.0 | 0.00 | 0.04 | 0.00 | 92 | 1024.4 |
| 20260501233336 | 64 | 72 | 2.0 | 7.0 | 0.00 | 0.04 | 0.00 | 92 | 1024.4 |
| 20260501232844 | 64 | 81 | 3.0 | 5.0 | 0.00 | 0.04 | 0.00 | 92 | 1024.5 |
| 20260501232336 | 64 | 71 | 1.0 | 4.0 | 0.00 | 0.04 | 0.00 | 92 | 1024.5 |
| 20260501231843 | 64 | 48 | 2.0 | 6.0 | 0.00 | 0.04 | 0.00 | 92 | 1024.5 |
| 20260501231338 | 64 | 86 | 3.0 | 7.0 | 0.00 | 0.04 | 0.00 | 92 | 1024.5 |
| 20260501230829 | 64 | 61 | 3.0 | 7.0 | 0.00 | 0.04 | 0.00 | 92 | 1024.5 |
| 20260501230341 | 64 | 51 | 2.0 | 7.0 | 0.00 | 0.04 | 0.00 | 92 | 1024.5 |
| 20260501225838 | 64 | 49 | 2.0 | 7.0 | 0.00 | 0.04 | 0.00 | 92 | 1024.4 |
| 20260501225329 | 64 | 61 | 3.0 | 6.0 | 0.00 | 0.04 | 0.00 | 92 | 1024.5 |
| 20260501224330 | 64 | 53 | 3.0 | 8.0 | 0.00 | 0.04 | 0.00 | 92 | 1024.5 |
| 20260501223838 | 64 | 33 | 3.0 | 8.0 | 0.00 | 0.04 | 0.00 | 92 | 1024.5 |
| 20260501223331 | 64 | 56 | 3.0 | 8.0 | 0.00 | 0.04 | 0.00 | 92 | 1024.6 |
| 20260501222839 | 64 | 59 | 3.0 | 8.0 | 0.00 | 0.04 | 0.00 | 92 | 1024.6 |
| 20260501222334 | 64 | 80 | 2.0 | 7.0 | 0.00 | 0.04 | 0.00 | 92 | 1024.6 |
| 20260501221840 | 64 | 59 | 2.0 | 7.0 | 0.00 | 0.04 | 0.00 | 92 | 1024.6 |
| 20260501221330 | 64 | 59 | 2.0 | 5.0 | 0.00 | 0.04 | 0.00 | 92 | 1024.5 |
| 20260501220840 | 64 | 44 | 2.0 | 5.0 | 0.00 | 0.04 | 0.00 | 92 | 1024.6 |
| 20260501220332 | 64 | 57 | 3.0 | 8.0 | 0.00 | 0.04 | 0.00 | 91 | 1024.7 |
| 20260501214834 | 64 | 60 | 4.0 | 9.0 | 0.00 | 0.04 | 0.01 | 91 | 1024.7 |
| 20260501214329 | 64 | 63 | 4.0 | 11.0 | 0.00 | 0.04 | 0.01 | 91 | 1024.6 |
| 20260501213835 | 64 | 90 | 6.0 | 10.0 | 0.00 | 0.04 | 0.01 | 91 | 1024.6 |
| 20260501213327 | 64 | 71 | 5.0 | 10.0 | 0.00 | 0.04 | 0.01 | 91 | 1024.7 |
| 20260501212835 | 65 | 57 | 4.0 | 8.0 | 0.00 | 0.04 | 0.01 | 91 | 1024.7 |
| 20260501212347 | 65 | 73 | 4.0 | 7.0 | 0.00 | 0.04 | 0.01 | 91 | 1024.7 |
| 20260501211834 | 65 | 88 | 3.0 | 6.0 | 0.00 | 0.04 | 0.01 | 91 | 1024.8 |
| 20260501211345 | 65 | 96 | 1.0 | 5.0 | 0.00 | 0.04 | 0.01 | 91 | 1024.8 |
| 20260501210849 | 65 | 66 | 1.0 | 5.0 | 0.00 | 0.04 | 0.01 | 91 | 1024.8 |
| 20260501210340 | 65 | 67 | 2.0 | 5.0 | 0.00 | 0.04 | 0.01 | 91 | 1024.8 |
| 20260501205837 | 65 | 71 | 1.0 | 7.0 | 0.00 | 0.04 | 0.01 | 91 | 1024.8 |
| 20260501205329 | 65 | 61 | 3.0 | 7.0 | 0.00 | 0.04 | 0.01 | 91 | 1024.8 |
| 20260501204332 | 65 | 75 | 2.0 | 5.0 | 0.00 | 0.04 | 0.01 | 91 | 1024.8 |
| 20260501203840 | 65 | 73 | 3.0 | 7.0 | 0.00 | 0.04 | 0.01 | 90 | 1024.7 |
| 20260501202837 | 65 | 71 | 2.0 | 5.0 | 0.00 | 0.04 | 0.01 | 90 | 1024.5 |
| 20260501202329 | 65 | 76 | 3.0 | 6.0 | 0.00 | 0.04 | 0.01 | 90 | 1024.4 |
| 20260501201329 | 65 | 73 | 0.0 | 7.0 | 0.00 | 0.04 | 0.01 | 90 | 1024.5 |
| 20260501200832 | 65 | 75 | 2.0 | 7.0 | 0.00 | 0.04 | 0.01 | 90 | 1024.3 |
| 20260501195838 | 65 | 61 | 4.0 | 6.0 | 0.00 | 0.04 | 0.01 | 90 | 1024.2 |
| 20260501195333 | 65 | 64 | 4.0 | 7.0 | 0.00 | 0.04 | 0.01 | 90 | 1024.2 |
| 20260501194337 | 65 | 72 | 2.0 | 8.0 | 0.00 | 0.04 | 0.01 | 90 | 1024.1 |
| 20260501193845 | 65 | 68 | 3.0 | 7.0 | 0.00 | 0.04 | 0.01 | 90 | 1024.0 |
| 20260501193337 | 65 | 70 | 4.0 | 8.0 | 0.00 | 0.04 | 0.01 | 89 | 1024.0 |
| 20260501192339 | 65 | 74 | 2.0 | 7.0 | 0.00 | 0.04 | 0.01 | 89 | 1023.8 |
| 20260501191848 | 65 | 66 | 2.0 | 7.0 | 0.00 | 0.04 | 0.01 | 89 | 1023.7 |
| 20260501191341 | 65 | 82 | 3.0 | 9.0 | 0.00 | 0.04 | 0.01 | 89 | 1023.6 |
| 20260501190343 | 65 | 88 | 4.0 | 8.0 | 0.00 | 0.04 | 0.01 | 89 | 1023.5 |
| 20260501185838 | 65 | 73 | 3.0 | 8.0 | 0.00 | 0.04 | 0.01 | 89 | 1023.5 |
| 20260501185332 | 65 | 78 | 3.0 | 7.0 | 0.00 | 0.04 | 0.01 | 88 | 1023.3 |
| 20260501184838 | 65 | 77 | 2.0 | 6.0 | 0.00 | 0.04 | 0.01 | 89 | 1023.4 |
| 20260501184330 | 65 | 82 | 3.0 | 8.0 | 0.00 | 0.04 | 0.01 | 88 | 1023.4 |
| 20260501183836 | 65 | 92 | 4.0 | 8.0 | 0.00 | 0.04 | 0.01 | 88 | 1023.4 |
| 20260501182837 | 65 | 119 | 4.0 | 9.0 | 0.00 | 0.04 | 0.01 | 88 | 1023.4 |
| 20260501182330 | 65 | 79 | 5.0 | 9.0 | 0.00 | 0.04 | 0.01 | 88 | 1023.3 |
| 20260501180840 | 65 | 119 | 3.0 | 8.0 | 0.00 | 0.04 | 0.01 | 87 | 1023.3 |
| 20260501180332 | 65 | 38 | 4.0 | 7.0 | 0.00 | 0.04 | 0.01 | 87 | 1023.3 |
| 20260501175831 | 65 | 76 | 2.0 | 9.0 | 0.00 | 0.04 | 0.01 | 87 | 1023.2 |
| 20260501175327 | 65 | 83 | 6.0 | 9.0 | 0.00 | 0.04 | 0.01 | 87 | 1023.3 |
| 20260501174835 | 65 | 78 | 4.0 | 7.0 | 0.00 | 0.04 | 0.01 | 87 | 1023.3 |
| 20260501174329 | 65 | 90 | 3.0 | 10.0 | 0.00 | 0.04 | 0.01 | 87 | 1023.2 |
| 20260501173836 | 65 | 72 | 6.0 | 10.0 | 0.00 | 0.04 | 0.01 | 87 | 1023.2 |
| 20260501173328 | 65 | 85 | 4.0 | 8.0 | 0.00 | 0.04 | 0.01 | 86 | 1023.2 |
| 20260501172835 | 65 | 100 | 3.0 | 8.0 | 0.00 | 0.04 | 0.01 | 86 | 1023.3 |